Location: Étouvelles
(49.5207°N, 3.5808°E)
Time: 00:26:49
(UTC+00:00)

Cosmos 540 Rocket - Pass Details

Date: 27 September 2023
Orbit: 737 x 752 km, 74.1° (Epoch: 03 December)

Event Time Altitude Azimuth Distance (km) Brightness Sun altitude
Rises 21:22:09 0° 337° (NNW) 3,184 7.6 -34.3°
Reaches altitude 10° 21:24:31 10° 339° (NNW) 2,258 6.6 -34.6°
Enters shadow 21:26:59 29° 343° (NNW) 1,342 5.1 -34.9°
